Regional Weather Roundup
Issued by NWS

Home | Current Version | Previous Version | Graphics & Text | Print | Product List | Glossary On
Versions: 1 2 3 4 5 6 7 8 9 10 11 12 13 14 15 16 17 18 19 20 21 22 23 24 25 26 27 28 29 30 31 32 33 34 35 36 37 38 39 40 41 42 43 44 45 46 47 48 49 50
000
ASUS43 KLOT 061721
RWRIL

ILLINOIS REGIONAL WEATHER ROUNDUP
NATIONAL WEATHER SERVICE CHICAGO/ROMEOVILLE IL
1200 PM CDT WED MAY 06 2015

NOTE: "FAIR" INDICATES FEW OR NO CLOUDS BELOW 12,000 FEET WITH NO
SIGNIFICANT WEATHER AND/OR OBSTRUCTIONS TO VISIBILITY.

* THESE STATIONS ARE NOT UNDER NWS QUALITY CONTROL. THEY ALSO MAY NOT
  REPORT WEATHER SUCH AS PRECIPITATION OR FOG.

ILZ001-002-007-009-015-016-024-061800-
NORTHWEST ILLINOIS

CITY           SKY/WX    TMP DP  RH WIND       PRES   REMARKS
MOLINE         SUNNY     78  60  53 S15       30.08F
STERLING*      MOSUNNY   73  63  68 SE5       30.12F
SAVANNA*       MOSUNNY   72  60  64 SE6       30.11F
$$

ILZ003-004-008-010-011-017-018-061800-
NORTH CENTRAL ILLINOIS

CITY           SKY/WX    TMP DP  RH WIND       PRES   REMARKS
ROCKFORD       PTSUNNY   69  60  73 SE8       30.16F
FREEPORT*      SUNNY     65  61  85 SE9       30.16S
ROCHELLE*      MOSUNNY   69  63  82 S8        30.15F
DE KALB*       MOSUNNY   65  62  87 S10       30.17S FOG
PERU*          MOSUNNY   75  62  63 S8        30.14F
$$

ILZ005-006-012>014-019>023-061800-
NORTHEAST ILLINOIS

CITY           SKY/WX    TMP DP  RH WIND       PRES   REMARKS
CHICAGO-OHARE  PTSUNNY   69  58  67 VRB6      30.16F HAZE
CHICAGO-MIDWAY FAIR      72  60  66 S6        30.16F HAZE
AURORA         PTSUNNY   70  61  73 S8        30.16F HAZE
LANSING*       MOSUNNY   73  60  62 S7        30.17F HAZE
JOLIET*        MOSUNNY   75  64  68 SE7       30.16F
WAUKEGAN       CLOUDY    55  52  89 NE5       30.18F FOG
DUPAGE AIRPORT MOSUNNY   70  61  73 VRB7      30.15F
KANKAKEE*      SUNNY     78  66  66 S6        30.17F HX  80
WHEELING       MOSUNNY   67  57  70 CALM      30.18F HAZE
MORRIS*        MOSUNNY   72  67  84 S3        30.14F
ROMEOVILLE*    MOSUNNY   73  63  69 S6        30.16F HAZE
NORTHERLY ISL    N/A     52  51  97 N3          N/A
$$

LMZ740>746-061800-
SOUTHERN LAKE MICHIGAN

STATION/POSITION SKY/WX   TEMP    WIND        PRES    VSBY  WAVE
                          AIR SEA DIR/SP/G                  HT/PER
                          (F)     (DEG/KT/KT) (MB)    (MI)  (FT/S)
HARRISON CRIB              47      30/  7/  7   N/A
BURNHAM HARBOR             52      30/  4/  5   N/A
CALUMET HARBOR             54      60/  4/  5   N/A
BURNS HARBOR               58     350/  2/ 13 1022.4S
MICHIGAN CITY              66     340/  4/  5   N/A
MICHIGAN CITY 6N           56 54   20/  4/  4   N/A           0
ST. JOSEPH                 55 53  360/  6/  6   N/A           0
$$

ILZ025>027-034>036-040-047-049-050-058-095>099-061800-
WEST-CENTRAL ILLINOIS

CITY           SKY/WX    TMP DP  RH WIND       PRES   REMARKS
QUINCY         MOSUNNY   79  55  43 S18G28    30.07F
GALESBURG*     SUNNY     78  58  49 S10G21    30.10F
MACOMB*        MOSUNNY   80  55  42 S17G24    30.11F HX  80
JACKSONVILLE*  PTSUNNY   84  52  32 S18G25    30.11F HX  82
PITTSFIELD*    PTSUNNY   81  55  41 S13       30.11F HX  81
$$

ILZ028>032-037-038-041>044-048-051>054-059>061-061800-
CENTRAL ILLINOIS

CITY           SKY/WX    TMP DP  RH WIND       PRES   REMARKS
PONTIAC        MOSUNNY   81  60  48 SW8       30.15F HX  82
BLOOMINGTON    MOSUNNY   81  58  45 S17       30.16F HX  81
DECATUR        MOSUNNY   83  50  31 S18G25    30.15F HX  81
PEORIA         SUNNY     82  56  40 S9        30.12F HX  82
LACON*         SUNNY     78  58  49 W9        30.12F
LINCOLN*       MOSUNNY   83  51  33 SW6G20    30.11F HX  81
SPRINGFIELD    MOSUNNY   85  51  31 S15G24    30.13F HX  83
TAYLORVILLE    MOSUNNY   81  52  36 S10G24    30.14F HX  80
$$

ILZ033-039-045-046-055>057-062-063-061800-
EAST-CENTRAL ILLINOIS

CITY           SKY/WX    TMP DP  RH WIND       PRES   REMARKS
CHAMPAIGN      MOSUNNY   85  45  24 S14G24    30.16F HX  82
DANVILLE*      MOSUNNY   82  52  34 SW10G16   30.14F HX  81
RANTOUL*       MOSUNNY   84  54  35 S10       30.16F HX  83
MATTOON        MOSUNNY   81  54  39 S12       30.16F HX  81
PARIS*         SUNNY     83  51  32 S8        30.17F HX  82
$$

ILZ079-100>102-061800-
SOUTHWEST ILLINOIS

CITY           SKY/WX    TMP DP  RH WIND       PRES   REMARKS
ALTON          MOSUNNY   81  57  44 S12       30.13F HX  81
BELLEVILLE     SUNNY     81  57  43 S9        30.12F HX  81
CAHOKIA*       SUNNY     83  56  39 S15       30.12F HX  82
SPARTA*        MOSUNNY   79  58  49 S12G20    30.15F HX  80
$$

ILZ064>066-069>071-074>076-080>082-084>086-088>090-092>094-061800-
SOUTH-CENTRAL ILLINOIS

CITY           SKY/WX    TMP DP  RH WIND       PRES   REMARKS
CARBONDALE     SUNNY     83  56  39 S13       30.15F HX  82
CAIRO*         PTSUNNY   81  56  43 S7        30.15F HX  81
EFFINGHAM*     MOSUNNY   82  45  27 S6        30.17F HX  80
MARION         MOSUNNY   82  59  44 S9        30.17F HX  82
MT. VERNON     MOSUNNY  N/A N/A N/A S12G20    30.16F
CENTRALIA*     MOSUNNY   86  52  30 S14       30.15F HX  84
SALEM*         SUNNY     84  51  31 S13       30.16F HX  82
METROPOLIS*    SUNNY     83  58  43 SE8       30.16F HX  82
$$

ILZ067-068-072-073-078-083-087-091-061800-
SOUTHEAST ILLINOIS

CITY           SKY/WX    TMP DP  RH WIND       PRES   REMARKS
LAWRENCEVILLE  MOSUNNY   82  52  35 SE7       30.18F HX  81
FLORA*         SUNNY     83  51  33 SW7       30.17F HX  81
FAIRFIELD*     SUNNY     83  53  35 S9        30.15F HX  82
HARRISBURG*    SUNNY     82  54  36 S7        30.17F HX  81
ROBINSON*      SUNNY     84  49  29 S7        30.18F HX  82
CARMI*         SUNNY     83  48  29 S12       30.16F HX  81
$$

ABBREVIATIONS USED IN REMARKS
   TC - TEMPERATURE IN CELSIUS
  WCI - WIND CHILL INDEX
   HX - HEAT INDEX
  VSB - VISIBILITY
$$




USA.gov is the U.S. government's official web portal to all federal, state and local government web resources and services.